Wind_Speed
21 20 20 19 19 20 20 20 21 21 21 22 24 25 26 27 27 29 31 33 35 37 39 40 43 46 48 51 53 54 55 57 56 56 56 56 55 54 55 56 55 55 55 56
21 21 21 20 20 20 20 20 21 21 21 21 22 24 25 26 26 28 29 32 33 35 37 39 40 44 48 49 51 52 54 55 56 57 57 57 56 55 55 55 55 55 54 54
22 21 21 20 21 21 21 20 21 21 21 21 22 23 24 24 25 26 26 29 32 34 36 38 40 41 45 47 49 51 53 54 55 55 56 57 58 57 56 56 55 55 55 54
23 22 21 20 21 21 21 21 21 21 22 22 22 23 24 24 25 25 26 27 29 32 34 36 38 40 43 46 48 49 51 53 54 54 55 56 57 57 56 56 56 56 55 55
23 23 21 21 22 22 22 21 22 22 23 23 23 22 23 25 26 26 25 26 27 29 32 34 37 39 42 45 46 47 49 52 53 53 54 54 55 56 55 55 56 56 56 55
24 24 23 22 23 23 23 23 23 22 23 23 24 24 23 24 25 25 25 25 25 27 29 32 34 37 40 43 44 45 47 50 52 53 54 54 54 54 54 54 54 54 54 54
24 24 23 23 23 23 24 24 24 24 23 23 24 24 24 23 24 24 24 24 25 26 27 29 32 34 37 39 41 44 45 47 50 51 53 53 54 54 53 53 54 54 54 54
24 24 23 23 24 25 25 25 25 24 24 23 23 23 24 24 23 23 23 23 24 24 25 27 29 32 34 35 39 41 44 45 47 50 52 52 53 54 54 54 54 54 54 53
25 24 24 25 25 26 25 25 25 24 24 23 23 23 24 24 23 23 23 23 23 23 23 25 27 29 31 33 35 38 40 42 44 47 49 51 52 53 53 53 53 53 54 54
24 23 24 25 25 25 25 25 25 24 24 22 23 23 23 23 22 21 22 23 22 23 23 24 25 27 29 31 34 36 39 40 42 44 47 48 50 52 52 51 52 52 53 53
24 24 24 25 26 25 25 25 25 24 23 22 22 22 22 22 21 21 21 22 22 23 24 24 25 26 28 31 33 34 36 38 40 42 44 46 48 49 50 50 50 50 50 50
25 25 26 26 26 25 25 25 25 24 23 23 22 22 21 21 21 21 21 21 22 23 24 24 25 25 26 29 31 33 35 36 38 40 42 44 46 46 47 48 48 48 48 48
26 26 26 26 26 26 26 25 25 24 24 23 23 22 21 21 21 21 21 21 22 22 23 24 24 25 25 27 29 31 33 35 38 39 41 42 44 44 45 46 46 47 47 47
26 26 26 26 25 25 25 25 24 24 24 23 22 22 22 22 22 22 22 22 22 22 22 23 23 24 25 26 27 29 31 34 36 38 40 41 41 42 43 44 44 44 45 45
26 26 26 25 25 25 24 24 24 23 23 22 22 22 22 22 22 22 22 22 22 22 22 23 23 24 25 25 26 28 30 32 35 36 38 39 39 40 41 42 43 42 41 42
26 26 26 25 25 24 24 23 24 23 23 22 21 22 22 22 21 22 22 23 22 22 22 23 23 24 24 24 25 26 28 30 32 34 35 37 38 39 40 41 41 40 40 40
26 26 25 24 24 24 24 24 24 23 22 22 22 22 22 21 21 22 22 23 22 22 22 21 21 22 23 23 24 24 25 27 30 32 33 35 36 37 38 39 40 39 40 40
25 25 25 24 24 24 24 24 24 24 23 23 22 22 22 22 22 22 22 22 22 21 21 22 22 22 23 23 23 24 25 26 28 30 32 33 34 35 35 37 37 38 39 39
25 25 25 24 24 24 24 24 24 24 23 23 22 23 23 23 23 22 22 22 21 21 21 21 21 22 22 23 23 24 25 25 26 28 29 31 32 33 34 34 35 36 37 37
25 25 25 24 24 25 25 25 24 24 23 23 23 24 24 24 24 23 23 22 21 21 20 20 21 21 21 22 22 23 24 25 26 27 28 29 30 31 32 32 33 33 35 36
25 25 25 25 25 25 25 25 24 23 23 23 24 24 24 24 24 24 23 22 21 21 20 20 20 20 21 21 22 22 23 24 25 26 27 28 29 30 31 31 32 33 34 35
25 25 25 25 25 25 25 24 24 23 23 23 24 24 23 23 23 24 23 23 22 21 21 20 20 21 21 22 22 23 24 25 25 26 26 26 27 28 30 31 31 32 33 34
25 25 25 25 25 24 24 23 23 23 23 23 23 23 23 23 23 23 23 22 22 21 21 20 20 20 21 22 23 24 24 25 25 26 26 27 27 28 28 29 30 30 32 33
25 25 24 24 24 23 23 22 22 22 22 22 22 22 22 22 22 22 22 22 21 21 20 20 20 20 21 22 23 24 24 25 25 25 26 26 26 27 27 27 28 29 29 30
24 23 23 22 22 22 21 21 21 21 21 21 21 21 21 21 21 21 21 20 20 19 19 19 19 20 21 21 22 23 24 25 25 25 26 26 26 26 26 27 27 27 27 28
22 22 22 21 21 20 20 20 20 20 20 20 20 20 20 19 19 19 18 18 18 18 18 18 19 19 20 21 22 23 24 25 25 25 26 26 26 26 26 27 28 28 28 28
22 21 21 21 21 20 20 19 19 19 19 18 18 18 19 18 18 17 17 17 17 17 17 17 18 18 19 20 20 21 22 24 25 25 25 26 26 26 26 27 28 28 28 27
Wind_Direction
311 307 304 304 301 298 294 291 287 282 276 272 269 268 266 264 262 259 257 255 252 248 245 242 240 237 234 232 231 231 229 229 229 229 230 231 231 231 232 233 233 235 235 235
312 306 303 301 300 300 298 293 288 284 278 274 272 272 272 267 262 259 258 256 252 250 247 243 241 239 235 234 233 232 231 230 229 229 230 231 231 232 232 233 234 234 235 236
313 308 304 302 302 300 298 294 290 286 283 277 275 272 274 271 266 262 261 258 254 249 247 245 242 240 236 233 233 232 231 231 231 230 231 232 232 232 232 233 234 234 235 236
313 308 305 305 304 303 298 295 293 291 288 283 280 278 277 275 273 270 266 260 256 250 246 245 243 241 237 234 233 233 232 231 231 231 232 232 233 233 234 235 235 234 236 237
312 310 307 306 305 303 300 298 298 295 289 286 283 282 283 280 277 275 272 265 258 253 249 246 243 241 238 235 234 233 233 232 232 231 232 232 233 234 234 235 236 236 237 239
310 309 311 310 307 305 302 300 300 298 291 287 284 282 283 283 280 277 274 269 262 257 251 247 244 241 238 236 235 234 234 233 232 231 231 232 233 234 234 235 237 237 238 240
308 307 309 310 308 306 304 304 302 299 295 289 286 284 282 282 281 278 274 270 265 259 254 250 247 242 238 237 236 235 234 234 232 231 231 231 232 233 235 235 236 238 239 240
306 306 309 308 306 305 304 304 304 301 297 291 287 285 283 283 281 278 274 270 267 262 256 252 248 244 240 239 238 235 234 232 231 230 229 230 231 233 234 235 236 238 239 240
305 306 305 305 304 304 303 303 302 302 298 293 288 286 283 282 281 277 273 269 265 261 257 254 250 245 243 242 239 236 233 232 231 229 229 230 231 233 234 235 236 238 239 240
306 305 304 303 302 302 302 301 301 300 298 295 292 288 284 282 280 278 275 271 267 264 260 255 251 249 247 243 239 236 234 232 231 230 230 230 231 233 234 235 236 237 238 240
308 306 305 304 302 301 302 301 301 300 298 298 297 292 287 283 281 279 277 273 271 267 264 259 257 254 249 245 240 239 236 234 233 232 232 231 232 233 233 234 237 238 239 240
307 305 304 303 301 301 300 301 301 301 298 298 297 295 289 285 283 280 278 276 274 268 263 261 259 257 251 247 243 240 237 235 234 233 232 231 231 233 234 235 236 237 239 240
304 303 303 302 301 301 301 301 300 299 297 297 296 293 288 285 285 284 281 279 278 272 267 264 261 255 251 249 245 242 238 235 233 233 233 232 233 233 234 234 236 238 240 241
304 303 302 302 302 302 302 302 301 300 298 297 296 293 290 287 286 284 282 280 280 277 270 266 261 256 252 250 246 243 240 236 234 233 233 233 234 234 234 234 236 238 239 241
303 303 302 302 302 302 302 301 301 301 300 297 296 294 293 290 288 285 283 283 281 278 271 264 261 258 255 251 247 243 240 236 234 234 233 233 233 233 233 234 236 237 240 241
302 302 302 301 300 300 300 300 299 299 299 297 296 296 295 293 291 288 285 285 283 279 274 266 262 259 256 252 247 243 240 236 234 233 233 233 234 234 234 235 235 237 239 240
303 302 302 301 300 299 300 299 298 298 298 297 296 296 296 294 293 291 289 287 283 278 272 267 264 260 256 252 247 244 241 238 236 235 234 234 234 234 234 235 236 238 240 241
303 302 302 301 299 298 298 297 297 297 297 296 296 296 295 294 293 290 289 288 284 278 273 267 263 260 257 253 250 245 242 239 237 237 235 235 234 234 235 235 236 238 239 241
304 303 302 301 299 298 297 296 296 296 295 294 295 295 294 292 290 289 288 287 284 279 274 268 263 259 255 251 248 245 242 240 238 236 235 234 234 234 235 235 237 237 238 241
303 302 302 300 299 298 297 296 296 296 295 295 294 294 293 291 290 288 286 285 283 280 274 268 262 258 254 250 247 244 241 239 238 236 236 236 235 235 235 235 236 237 239 241
302 301 300 300 299 298 297 297 297 297 297 296 296 295 293 292 290 288 286 284 281 279 274 268 261 256 252 250 247 244 241 239 238 236 235 235 235 235 235 235 236 238 240 241
304 302 301 300 299 299 299 298 298 297 296 297 297 296 294 292 290 288 286 284 280 278 274 269 263 256 252 250 248 244 242 240 239 238 237 236 236 237 238 238 240 241 242 243
306 304 302 301 301 300 300 300 299 297 297 297 298 298 296 293 291 289 286 283 280 277 273 268 264 259 254 251 248 246 243 241 239 238 239 239 239 240 241 242 243 244 244 245
306 306 305 303 302 302 301 301 300 299 298 298 299 298 298 296 293 290 286 282 279 276 272 268 264 260 255 251 248 246 243 241 240 240 241 242 242 242 244 245 246 247 246 246
307 306 306 305 304 303 303 302 301 301 300 300 300 300 299 297 295 292 288 283 279 275 271 268 265 261 257 253 250 247 244 243 242 242 242 242 243 244 245 245 246 247 247 247
306 306 306 306 305 305 304 304 304 303 302 302 302 302 301 300 297 295 292 287 283 278 274 271 267 262 256 253 251 249 247 245 244 242 242 242 244 244 245 245 246 248 248 248
304 305 306 306 306 306 305 305 306 306 305 305 304 304 303 302 300 298 294 290 286 282 279 275 269 264 258 254 252 250 248 246 244 242 242 243 244 246 247 246 246 246 247 247
Height
5560 5556 5553 5551 5549 5546 5544 5541 5540 5539 5537 5537 5536 5535 5535 5534 5534 5534 5535 5536 5537 5539 5541 5544 5547 5551 5556 5561 5566 5572 5578 5585 5592 5599 5606 5613 5619 5626 5632 5639 5645 5651 5656 5662
5556 5552 5548 5546 5544 5541 5539 5536 5534 5532 5531 5530 5529 5528 5527 5526 5526 5526 5526 5527 5528 5529 5531 5534 5537 5540 5544 5549 5554 5560 5566 5573 5580 5587 5594 5600 5607 5614 5620 5626 5633 5639 5644 5650
5551 5547 5544 5542 5540 5536 5534 5531 5529 5526 5526 5524 5522 5521 5520 5519 5518 5517 5517 5517 5518 5519 5521 5524 5526 5529 5533 5537 5542 5548 5554 5561 5568 5575 5581 5588 5595 5601 5608 5614 5620 5627 5632 5638
5545 5542 5539 5539 5534 5531 5528 5526 5523 5520 5519 5517 5516 5514 5512 5511 5510 5509 5508 5508 5509 5510 5511 5513 5516 5519 5522 5526 5531 5536 5542 5548 5556 5563 5569 5576 5582 5589 5596 5602 5608 5614 5620 5626
5539 5535 5533 5532 5528 5525 5522 5520 5517 5514 5512 5510 5509 5508 5506 5504 5502 5501 5500 5500 5500 5500 5502 5504 5506 5509 5512 5516 5520 5525 5531 5537 5544 5550 5557 5564 5570 5577 5583 5589 5595 5601 5608 5613
5533 5529 5527 5527 5523 5518 5517 5514 5511 5508 5505 5503 5501 5501 5501 5497 5495 5494 5493 5492 5492 5492 5493 5494 5496 5498 5502 5506 5510 5515 5520 5526 5532 5539 5546 5553 5559 5565 5571 5577 5583 5589 5595 5601
5528 5524 5522 5520 5516 5513 5511 5509 5505 5501 5498 5496 5494 5494 5493 5490 5488 5487 5485 5484 5484 5484 5485 5486 5487 5489 5493 5496 5500 5505 5509 5515 5520 5527 5534 5541 5547 5553 5559 5565 5571 5577 5583 5588
5522 5518 5518 5513 5509 5507 5505 5501 5497 5494 5492 5489 5488 5486 5484 5482 5481 5479 5478 5477 5477 5477 5477 5478 5479 5481 5484 5488 5491 5495 5499 5504 5509 5515 5522 5528 5534 5540 5546 5553 5559 5564 5569 5575
5517 5515 5511 5506 5503 5500 5497 5494 5491 5488 5485 5483 5481 5479 5477 5476 5474 5473 5471 5471 5470 5470 5470 5471 5472 5473 5476 5478 5481 5485 5489 5493 5498 5504 5510 5516 5522 5528 5534 5540 5546 5551 5556 5562
5510 5507 5503 5499 5496 5493 5490 5487 5484 5481 5478 5476 5474 5472 5470 5469 5468 5466 5465 5464 5464 5463 5463 5464 5465 5466 5467 5469 5472 5475 5479 5483 5488 5494 5499 5505 5510 5516 5522 5528 5533 5538 5544 5549
5503 5500 5497 5493 5489 5486 5483 5480 5477 5474 5472 5469 5467 5465 5463 5462 5461 5460 5459 5458 5457 5456 5456 5457 5457 5458 5459 5461 5463 5466 5469 5473 5478 5483 5488 5494 5499 5505 5510 5516 5521 5527 5532 5537
5497 5493 5490 5486 5482 5479 5476 5473 5470 5468 5465 5463 5460 5458 5457 5455 5454 5453 5452 5451 5450 5449 5449 5449 5450 5450 5451 5452 5455 5457 5460 5464 5468 5473 5478 5483 5488 5494 5499 5505 5510 5515 5519 5524
5489 5485 5482 5479 5475 5472 5469 5466 5464 5461 5459 5456 5454 5452 5450 5449 5448 5447 5445 5444 5443 5442 5442 5441 5442 5442 5443 5445 5446 5449 5451 5455 5459 5463 5468 5473 5479 5484 5489 5494 5498 5503 5507 5511
5481 5478 5475 5471 5468 5465 5462 5460 5457 5454 5452 5450 5448 5446 5444 5443 5441 5440 5439 5437 5436 5435 5434 5434 5434 5435 5436 5437 5438 5440 5443 5446 5450 5454 5458 5463 5469 5474 5479 5483 5488 5492 5496 5500
5474 5470 5467 5464 5461 5458 5456 5453 5450 5448 5445 5443 5441 5439 5438 5436 5434 5433 5431 5430 5429 5427 5427 5426 5427 5427 5428 5429 5431 5432 5434 5437 5441 5445 5449 5454 5458 5463 5468 5473 5477 5482 5486 5490
5467 5463 5460 5457 5455 5452 5449 5446 5444 5441 5439 5437 5435 5433 5431 5429 5427 5426 5424 5423 5421 5420 5419 5419 5419 5420 5420 5421 5423 5424 5426 5429 5432 5436 5440 5444 5449 5453 5458 5462 5467 5471 5475 5479
5459 5456 5453 5451 5448 5445 5442 5440 5437 5435 5432 5430 5428 5426 5424 5422 5421 5419 5417 5415 5414 5413 5412 5412 5412 5412 5413 5414 5415 5417 5419 5421 5424 5428 5431 5435 5439 5444 5448 5452 5457 5461 5464 5468
5452 5449 5446 5443 5441 5438 5436 5433 5430 5428 5425 5423 5421 5419 5417 5416 5414 5412 5410 5409 5407 5406 5405 5405 5405 5405 5405 5406 5408 5409 5411 5413 5416 5419 5423 5426 5430 5434 5438 5442 5446 5449 5453 5457
5444 5441 5439 5436 5433 5431 5428 5426 5423 5421 5418 5416 5414 5412 5410 5408 5407 5405 5403 5401 5400 5399 5398 5397 5397 5398 5398 5399 5400 5402 5404 5406 5409 5411 5414 5417 5421 5424 5428 5432 5436 5439 5443 5446
5437 5434 5431 5428 5426 5423 5421 5418 5416 5413 5411 5409 5407 5405 5403 5401 5399 5397 5396 5394 5392 5391 5391 5390 5390 5391 5391 5392 5393 5395 5397 5399 5401 5404 5407 5409 5413 5416 5419 5423 5426 5430 5433 5436
5429 5426 5424 5421 5418 5416 5413 5411 5408 5406 5404 5401 5399 5397 5395 5393 5391 5389 5388 5386 5385 5384 5383 5383 5383 5384 5385 5385 5387 5388 5390 5392 5394 5397 5399 5402 5405 5408 5411 5414 5417 5420 5423 5426
5422 5419 5416 5413 5411 5408 5406 5403 5401 5398 5396 5394 5392 5389 5387 5385 5383 5381 5379 5378 5377 5376 5376 5375 5375 5376 5377 5378 5380 5381 5383 5385 5387 5390 5392 5395 5397 5400 5403 5406 5408 5411 5414 5416
5414 5411 5409 5406 5403 5401 5399 5396 5394 5391 5389 5387 5384 5382 5379 5377 5375 5373 5372 5371 5369 5369 5368 5368 5368 5369 5370 5371 5373 5374 5376 5378 5380 5382 5384 5387 5389 5392 5394 5397 5399 5401 5404 5407
5407 5404 5401 5399 5396 5394 5391 5389 5386 5384 5382 5379 5377 5375 5372 5370 5368 5366 5364 5363 5362 5361 5361 5361 5361 5362 5363 5364 5365 5367 5368 5370 5372 5374 5377 5379 5381 5383 5386 5388 5390 5392 5395 5397
5400 5397 5395 5392 5389 5387 5384 5382 5380 5377 5375 5373 5370 5368 5365 5363 5361 5359 5357 5356 5355 5354 5354 5354 5354 5355 5355 5356 5357 5359 5361 5362 5364 5366 5369 5371 5373 5375 5378 5380 5382 5384 5386 5388
5394 5391 5388 5386 5383 5381 5378 5376 5373 5371 5369 5366 5364 5361 5359 5357 5354 5352 5351 5349 5348 5348 5347 5347 5347 5347 5348 5349 5350 5351 5353 5354 5356 5358 5360 5363 5365 5367 5369 5371 5374 5376 5378 5380
5387 5385 5382 5380 5377 5375 5372 5370 5367 5365 5363 5360 5358 5356 5353 5351 5349 5347 5345 5344 5342 5342 5341 5340 5340 5340 5341 5341 5342 5343 5345 5346 5348 5350 5352 5354 5356 5358 5361 5363 5365 5367 5369 5371